ZHONGXING-20A           
1 37234U 10064A   19260.51438287 -.00000355  00000-0  00000+0 0  9999
2 37234   0.2167 104.8762 0003415 132.6949  70.1827  1.00271041 32312
CZ-3A R/B               
1 37235U 10064B   19260.22511748  .00143464  81525-6  96621-3 0  9995
2 37235  24.1593 234.1261 5638332 151.6624 256.3040  4.72924429100464